[[{"header":{"parameterUnit":"m.s-1","parameterCategory":1,"la1":30.2991,"la2":30.254,"lo1":-89.0895,"lo2":-89.0444,"dy":0.0017,"dx":0.0017,"nx":28,"ny":28,"refTime":"2024-05-24T21:00:00:Z","depth":0,"parameterNumber":2,"parameterNumberName":"U-component_of_WINDS"},"data":[0,0,0,0,0,0,0,0,0,0,0,0,0,0,0,0,0,0,0,0,0,0,0,0,0,0,0,0,0,0,0,0,0,0,0,0,0,0,0,0,0,0,0,0,0,0,0,0,0,0,0,0,0,0,0,0,0,0,-1.7013,-1.7012,0,-1.6995,-1.6995,-1.6995,-1.6963,-1.6963,-1.6962,-1.6962,-1.6943,-1.6943,-1.6943,0,0,0,0,0,0,0,0,0,0,0,0,0,-1.702,-1.702,-1.7013,-1.7012,-1.7012,-1.6995,-1.6995,-1.6994,-1.6964,-1.6963,-1.6962,-1.6961,-1.6943,-1.6943,-1.6943,0,0,0,0,0,0,0,0,0,0,0,0,0,-1.7011,-1.702,-1.7013,-1.6995,-1.6993,-1.6995,-1.6995,-1.6994,-1.6964,-1.6963,-1.6962,-1.6961,-1.6943,-1.6943,-1.6943,-1.6961,0,0,-1.6943,-1.6943,0,0,0,0,0,0,0,0,-1.7012,-1.7011,-1.6998,-1.6996,-1.6994,-1.6981,-1.699,-1.6983,-1.6964,-1.6975,-1.6962,-1.6961,-1.6956,-1.6955,-1.6953,-1.696,-1.6959,-1.6943,-1.6943,-1.6943,-1.6943,0,0,0,0,0,0,0,-1.7012,-1.7012,-1.7006,-1.6997,-1.6995,-1.6988,-1.6985,-1.6989,-1.697,-1.6974,-1.6971,-1.697,-1.6955,-1.6953,-1.6953,-1.6959,-1.6943,-1.6943,-1.6943,-1.6943,-1.6979,-1.698,0,0,0,0,0,0,-1.7016,-1.7012,-1.7006,-1.7005,-1.7001,-1.6988,-1.6986,-1.6986,-1.697,-1.6967,-1.6971,-1.6968,-1.6954,-1.6953,-1.6952,-1.6971,-1.6943,-1.6943,-1.6943,-1.6978,-1.6979,-1.698,0,0,0,0,0,0,-1.7016,-1.7015,-1.7007,-1.7008,-1.7006,-1.6989,-1.6989,-1.6986,-1.6984,-1.6968,-1.6964,-1.6972,-1.6953,-1.6952,-1.6959,-1.697,-1.6943,-1.6943,-1.6977,-1.6979,-1.698,-1.7011,0,0,0,0,0,0,-1.7016,-1.7016,-1.7022,-1.7008,-1.7006,-1.7014,-1.699,-1.6986,-1.6985,-1.6982,-1.6969,-1.6966,-1.6952,-1.6959,-1.6959,-1.697,-1.6943,-1.6976,-1.6978,-1.6979,-1.7008,-1.7013,-1.7017,0,0,0,0,0,-1.7017,-1.7031,-1.7022,-1.7022,-1.7014,-1.7015,-1.7013,-1.6998,-1.6986,-1.6992,-1.6982,-1.6966,-1.697,-1.696,-1.696,-1.6971,-1.6975,-1.6977,-1.6979,-1.7007,-1.7012,-1.7017,0,0,0,0,0,0,-1.7046,-1.7029,-1.7019,-1.703,-1.7024,-1.7009,-1.7016,-1.7004,-1.7001,-1.6998,-1.6979,-1.6976,-1.6986,-1.6979,-1.6969,-1.6988,-1.697,-1.6972,-1.6991,-1.6996,-1.7,-1.7,-1.6943,0,0,0,0,0,-1.7054,-1.7055,-1.7041,-1.7051,-1.7049,-1.7034,-1.7033,-1.7022,-1.7015,-1.7012,-1.7002,-1.6996,-1.6996,-1.6996,-1.6995,-1.7009,-1.7005,-1.7016,-1.702,-1.7024,-1.7025,-1.7032,-1.7036,-1.6987,-1.6987,-1.6987,0,0,-1.7069,-1.706,-1.7062,-1.7057,-1.7051,-1.7054,-1.7032,-1.7035,-1.7037,-1.7013,-1.7018,-1.7012,-1.7003,-1.7014,-1.7018,-1.7009,-1.7038,-1.7026,-1.7029,-1.7029,-1.7034,-1.7039,-1.7043,-1.6989,-1.6988,-1.6988,0,0,-1.7098,-1.7092,-1.71,-1.7096,-1.7087,-1.7077,-1.708,-1.7068,-1.7062,-1.7068,-1.705,-1.7052,-1.7052,-1.7047,-1.7044,-1.7075,-1.706,-1.7075,-1.7096,-1.7102,-1.7106,-1.7109,-1.7119,-1.7123,-1.7077,-1.7077,-1.7077,0,-1.7118,-1.7121,-1.7106,-1.7111,-1.7109,-1.7089,-1.7097,-1.7093,-1.7085,-1.7084,-1.7075,-1.7075,-1.7068,-1.7077,-1.7084,-1.7083,-1.7085,-1.7075,-1.7107,-1.711,-1.7113,-1.7122,-1.7126,-1.7079,-1.7079,-1.7078,-1.7078,0,-1.7146,-1.7149,-1.7156,-1.7149,-1.7149,-1.7155,-1.7141,-1.7143,-1.7132,-1.7124,-1.713,-1.7122,-1.7119,-1.7121,-1.711,-1.7128,-1.7123,-1.7111,-1.7092,-1.712,-1.7128,-1.7131,-1.7081,-1.7081,-1.708,-1.708,0,0,-1.719,-1.7177,-1.7179,-1.7176,-1.7167,-1.7169,-1.7175,-1.7172,-1.7174,-1.717,-1.7174,-1.7176,-1.7164,-1.7162,-1.7151,-1.7157,-1.7181,-1.7144,-1.7144,-1.715,-1.72,-1.7208,-1.7212,-1.7173,-1.7173,-1.7174,-1.72,0,-1.7216,-1.7225,-1.7213,-1.7224,-1.7227,-1.7209,-1.7214,-1.721,-1.7202,-1.7203,-1.7195,-1.7196,-1.7182,-1.718,-1.7186,-1.7177,-1.719,-1.7175,-1.7175,-1.7175,-1.7176,-1.7216,-1.7224,-1.7249,-1.7203,-1.7204,-1.7204,0,-1.7247,-1.7245,-1.7257,-1.7248,-1.7248,-1.7253,-1.725,-1.7252,-1.7246,-1.724,-1.7239,-1.7226,-1.7232,-1.7217,-1.7224,-1.7214,-1.7214,-1.721,-1.721,-1.7208,-1.719,-1.7213,-1.7257,-1.726,-1.7209,-1.7209,-1.7208,0,-1.7276,-1.7277,-1.7284,-1.7282,-1.7272,-1.7276,-1.7272,-1.7266,-1.7265,-1.7263,-1.7263,-1.7262,-1.7261,-1.726,-1.7248,-1.7238,-1.7257,-1.724,-1.7251,-1.7252,-1.7254,-1.7253,-1.7296,-1.7258,-1.7257,-1.7257,-1.7257,0,-1.7305,-1.7313,-1.7297,-1.7301,-1.731,-1.7296,-1.7305,-1.7299,-1.7295,-1.7297,-1.7283,-1.7286,-1.7271,-1.7273,-1.7264,-1.7271,-1.7271,-1.7266,-1.7263,-1.7266,-1.7267,-1.7264,-1.7261,-1.7258,-1.7258,-1.7258,-1.7258,0,-1.7338,-1.7328,-1.7334,-1.7325,-1.7323,-1.7329,-1.7321,-1.7325,-1.7318,-1.7322,-1.7322,-1.7311,-1.7312,-1.7301,-1.73,-1.7294,-1.7305,-1.73,-1.7307,-1.7304,-1.7316,-1.7314,-1.7357,-1.7362,-1.7322,-1.7322,-1.7322,0,-1.7356,-1.7361,-1.7353,-1.7354,-1.7351,-1.7353,-1.7353,-1.7341,-1.7341,-1.7337,-1.7341,-1.7342,-1.7341,-1.7344,-1.7336,-1.7335,-1.7329,-1.7344,-1.7329,-1.7332,-1.7328,-1.7327,-1.7327,-1.7347,-1.7347,-1.7348,-1.7348,0,-1.7388,-1.7383,-1.7384,-1.7383,-1.7383,-1.7382,-1.738,-1.7382,-1.7369,-1.737,-1.7372,-1.7371,-1.7371,-1.7372,-1.737,-1.7366,-1.7355,-1.7353,-1.7356,-1.7358,-1.7361,-1.7358,-1.7314,-1.7352,-1.7351,-1.7351,-1.7351,-1.7351,-1.7413,-1.7417,-1.7412,-1.7413,-1.7411,-1.741,-1.7413,-1.7407,-1.7408,-1.7406,-1.74,-1.7403,-1.7398,-1.7395,-1.7393,-1.7395,-1.7387,-1.7391,-1.7392,-1.7392,-1.7394,-1.7362,-1.7395,-1.7394,-1.7394,-1.7394,-1.7394,0,-1.7444,-1.744,-1.7442,-1.7439,-1.744,-1.7431,-1.7429,-1.743,-1.7433,-1.743,-1.743,-1.7432,-1.7433,-1.7426,-1.7426,-1.7429,-1.7424,-1.743,-1.7428,-1.7427,-1.7401,-1.7398,-1.7434,-1.7434,-1.7434,-1.7434,-1.7434,-1.7434,-1.7459,-1.7466,-1.7461,-1.7467,-1.7463,-1.7466,-1.7465,-1.7464,-1.7462,-1.7465,-1.7466,-1.7462,-1.7457,-1.7457,-1.7457,-1.7455,-1.7455,-1.7462,-1.7458,-1.7433,-1.7429,-1.7425,-1.7423,-1.7463,-1.7463,-1.7484,-1.7484,-1.7485]},{"header":{"parameterUnit":"m.s-1","parameterCategory":1,"la1":30.2991,"la2":30.254,"lo1":-89.0895,"lo2":-89.0444,"dy":0.0017,"dx":0.0017,"nx":28,"ny":28,"refTime":"2024-05-24T21:00:00:Z","depth":0,"parameterNumber":3,"parameterNumberName":"V-component_of_WINDS"},"data":[0,0,0,0,0,0,0,0,0,0,0,0,0,0,0,0,0,0,0,0,0,0,0,0,0,0,0,0,0,0,0,0,0,0,0,0,0,0,0,0,0,0,0,0,0,0,0,0,0,0,0,0,0,0,0,0,0,0,6.4323,6.4324,0,6.4388,6.4389,6.4389,6.4395,6.4394,6.4393,6.4393,6.4453,6.4455,6.4457,0,0,0,0,0,0,0,0,0,0,0,0,0,6.4201,6.4203,6.4323,6.4324,6.4325,6.4388,6.4389,6.4389,6.4395,6.4394,6.4393,6.4392,6.4452,6.4454,6.4457,0,0,0,0,0,0,0,0,0,0,0,0,0,6.4258,6.4204,6.4323,6.4335,6.4337,6.4388,6.4389,6.439,6.4395,6.4394,6.4393,6.4392,6.4451,6.4454,6.4457,6.4498,0,0,6.4468,6.4469,0,0,0,0,0,0,0,0,6.4255,6.4263,6.4333,6.4335,6.4337,6.4382,6.4367,6.4426,6.4395,6.4373,6.4393,6.4392,6.443,6.4435,6.4449,6.4501,6.4503,6.4468,6.447,6.4471,6.4472,0,0,0,0,0,0,0,6.4251,6.426,6.4349,6.4334,6.4336,6.4336,6.4343,6.4378,6.4406,6.4375,6.4375,6.4383,6.443,6.4445,6.445,6.4504,6.4468,6.4471,6.4473,6.4474,6.4595,6.4596,0,0,0,0,0,0,6.4245,6.4257,6.4347,6.4351,6.4293,6.4339,6.4347,6.4369,6.4406,6.441,6.4384,6.4383,6.444,6.4446,6.4452,6.4504,6.4471,6.4474,6.4476,6.4594,6.4596,6.4597,0,0,0,0,0,0,6.4243,6.4253,6.4344,6.4304,6.4315,6.4342,6.4366,6.437,6.4386,6.4413,6.4417,6.4395,6.444,6.4448,6.4488,6.4506,6.4476,6.4479,6.4593,6.4595,6.4596,6.4607,0,0,0,0,0,0,6.4239,6.4252,6.4269,6.4304,6.4318,6.438,6.4368,6.4372,6.4392,6.4392,6.4424,6.4428,6.444,6.4483,6.4491,6.451,6.4482,6.4591,6.4593,6.4596,6.4605,6.4609,6.4612,0,0,0,0,0,6.4235,6.4268,6.427,6.4281,6.4339,6.4381,6.4388,6.4403,6.4393,6.441,6.4428,6.4427,6.4503,6.4487,6.4496,6.4517,6.459,6.4593,6.4595,6.4604,6.4608,6.4612,0,0,0,0,0,0,6.4231,6.4272,6.4275,6.4321,6.4348,6.4382,6.4403,6.4407,6.4435,6.4433,6.4447,6.4455,6.4495,6.4509,6.4491,6.4559,6.4545,6.455,6.4548,6.4553,6.4556,6.4552,6.4484,0,0,0,0,0,6.4236,6.4268,6.4302,6.4339,6.4352,6.4375,6.4394,6.4403,6.443,6.4441,6.4461,6.4486,6.4516,6.4535,6.4563,6.4607,6.4615,6.4626,6.463,6.4632,6.4637,6.4662,6.4668,6.4606,6.4606,6.4606,0,0,6.4246,6.4272,6.4291,6.4339,6.4361,6.4393,6.4385,6.4418,6.4442,6.4445,6.4486,6.4501,6.453,6.4573,6.4593,6.4586,6.4656,6.4636,6.4638,6.4641,6.4666,6.4672,6.4677,6.4608,6.4607,6.4607,0,0,6.428,6.4303,6.4338,6.4361,6.4395,6.4411,6.4419,6.4453,6.4465,6.4506,6.451,6.4537,6.4587,6.4609,6.4626,6.4671,6.4672,6.4679,6.4698,6.4723,6.4728,6.4733,6.475,6.4756,6.4683,6.4683,6.4683,0,6.4287,6.4338,6.4354,6.4389,6.441,6.4418,6.4453,6.4473,6.4514,6.4528,6.452,6.4586,6.4605,6.4654,6.4665,6.4678,6.4688,6.4676,6.4727,6.4731,6.4735,6.4752,6.4759,6.4684,6.4684,6.4684,6.4684,0,6.4346,6.438,6.4404,6.4447,6.447,6.4504,6.4525,6.4547,6.4554,6.457,6.4612,6.4637,6.4671,6.4683,6.4689,6.4733,6.4729,6.4724,6.471,6.4742,6.4758,6.4765,6.4685,6.4685,6.4685,6.4684,0,0,6.4379,6.4433,6.4441,6.4462,6.4501,6.4527,6.4561,6.4598,6.4617,6.4644,6.4674,6.4718,6.4715,6.4734,6.4742,6.4764,6.4801,6.4757,6.4758,6.4766,6.4852,6.4857,6.4864,6.4801,6.4802,6.4803,6.485,0,6.4419,6.4484,6.4501,6.4555,6.4588,6.4597,6.4627,6.4654,6.467,6.4699,6.4715,6.4747,6.4739,6.4751,6.4773,6.4792,6.4818,6.4788,6.4828,6.483,6.4823,6.4872,6.4876,6.492,6.4856,6.4858,6.4858,0,6.4474,6.4507,6.4566,6.4603,6.4618,6.4645,6.4681,6.4708,6.4739,6.4749,6.4772,6.4779,6.4815,6.48,6.4849,6.4828,6.4846,6.4857,6.4859,6.4864,6.4847,6.488,6.4933,6.494,6.4868,6.4867,6.4867,0,6.4495,6.4553,6.4597,6.4614,6.4658,6.4677,6.4696,6.4725,6.4747,6.4777,6.4792,6.4825,6.4843,6.4868,6.4884,6.4871,6.4932,6.4918,6.4942,6.4941,6.4955,6.4954,6.5014,6.4964,6.4964,6.4964,6.4963,0,6.4539,6.4575,6.4607,6.4634,6.4675,6.4693,6.4732,6.4751,6.4778,6.4807,6.4815,6.4842,6.4861,6.489,6.4902,6.4943,6.495,6.4959,6.4962,6.4959,6.4958,6.4971,6.4969,6.4965,6.4965,6.4965,6.4964,0,6.4569,6.4592,6.4641,6.4679,6.469,6.4718,6.4751,6.4776,6.4793,6.4831,6.4841,6.4867,6.4902,6.492,6.4963,6.4972,6.5017,6.5018,6.5008,6.501,6.5033,6.5031,6.5104,6.5115,6.5057,6.5057,6.5058,0,6.4596,6.4625,6.4668,6.469,6.471,6.4745,6.4768,6.4787,6.481,6.4848,6.4869,6.4906,6.4937,6.4993,6.5014,6.5048,6.505,6.5073,6.5055,6.5052,6.5052,6.5051,6.5054,6.5076,6.5077,6.5077,6.5078,0,6.4643,6.4654,6.4688,6.4727,6.4755,6.4786,6.4816,6.4832,6.4856,6.4882,6.492,6.4944,6.499,6.5026,6.5062,6.5079,6.5083,6.5084,6.5091,6.5089,6.5083,6.5089,6.5019,6.5082,6.5081,6.5081,6.5081,6.5081,6.4674,6.47,6.4736,6.4774,6.4799,6.4828,6.4855,6.4877,6.491,6.4951,6.4959,6.5,6.503,6.5079,6.5097,6.5128,6.5123,6.5134,6.5137,6.5139,6.5142,6.5078,6.5135,6.5134,6.5134,6.5134,6.5134,0,6.4722,6.4746,6.4781,6.4825,6.4855,6.4858,6.4892,6.4916,6.4953,6.4982,6.5013,6.5057,6.5093,6.5118,6.5154,6.5174,6.5177,6.5183,6.5182,6.5187,6.5143,6.5134,6.5181,6.5181,6.5181,6.5181,6.5181,6.5181,6.4751,6.4797,6.4812,6.4871,6.4894,6.4936,6.4955,6.4982,6.5005,6.5055,6.5086,6.5103,6.5131,6.517,6.5202,6.5209,6.5222,6.5229,6.5235,6.5194,6.5189,6.5185,6.5176,6.5231,6.5231,6.5276,6.5277,6.5277]}]]